Theta_e
306 309 312 311 312 312 314 311 314 315 314 313 313 314 314 314 315 315 314 310 307 305 304 302 301 301 301 301 300 299 297 296 296 296 296 296 296 295 295 294 294 294 295
302 305 310 312 312 312 312 312 312 314 313 312 312 312 312 313 313 314 315 311 308 306 305 302 301 301 300 300 299 298 297 296 296 295 295 296 295 295 295 295 294 294 294
300 301 304 309 310 310 311 311 312 311 311 311 311 310 311 311 311 311 312 312 309 306 304 303 302 301 300 299 298 297 296 296 295 295 295 295 295 294 294 294 294 294 294
298 299 300 301 305 305 306 307 307 308 308 309 309 309 309 309 310 308 308 305 305 305 304 302 301 300 299 299 297 296 295 295 294 294 294 294 294 293 292 292 293 292 293
294 296 297 299 301 301 302 302 303 304 304 305 306 306 307 307 308 309 305 304 303 302 301 300 299 299 298 296 295 294 294 294 293 293 293 293 292 291 290 288 291 291 292
293 294 295 295 297 298 299 300 301 301 301 302 303 304 305 306 305 307 307 303 303 302 300 299 298 296 295 294 294 294 293 294 293 293 292 292 292 290 288 287 289 290 290
294 295 295 296 296 296 296 297 298 299 300 301 301 301 302 302 303 304 305 301 300 300 299 298 297 295 294 293 294 295 294 293 293 292 292 292 290 288 287 288 288 287 288
291 292 293 293 294 295 296 297 297 298 299 300 300 300 300 301 301 298 300 300 298 297 297 296 295 295 296 295 294 292 294 292 292 292 291 290 289 288 287 287 287 287 288
289 290 290 290 292 292 293 294 294 295 295 296 297 298 298 298 298 299 297 296 296 296 296 296 295 294 294 293 294 294 293 293 292 291 289 288 287 287 286 286 287 286 286
287 288 288 289 289 290 290 291 292 292 292 293 293 293 294 295 294 295 295 296 296 295 294 294 294 294 293 293 293 292 292 292 291 290 289 288 286 286 285 286 286 286 286
286 286 287 288 288 289 289 289 290 290 291 291 291 292 292 292 292 293 294 294 295 294 293 293 293 293 292 291 291 290 290 289 288 288 287 287 287 286 286 286 286 286 285
285 285 286 286 287 287 288 288 289 289 289 290 290 291 291 291 291 291 292 292 292 292 292 292 291 290 289 289 288 289 288 287 286 286 286 286 286 286 286 286 285 285 285
284 285 285 285 285 286 286 286 286 287 288 288 289 289 290 290 290 289 288 289 290 289 289 289 288 288 288 287 286 286 286 286 285 285 285 286 286 286 285 285 285 285 285
284 284 284 284 284 285 285 285 285 285 285 286 286 287 287 288 288 288 288 287 286 286 286 287 287 287 287 286 286 285 285 285 285 285 285 285 285 285 284 284 284 284 284
283 283 283 283 283 284 284 284 284 284 284 284 284 285 285 286 286 286 286 286 286 285 285 285 284 284 284 284 284 285 285 285 285 285 285 284 284 284 284 283 283 283 283
281 282 283 283 283 283 283 283 283 284 284 284 284 284 284 285 285 285 285 285 285 285 284 284 284 284 284 284 284 284 284 284 284 283 283 282 281 280 280 280 281 281 281
280 281 281 281 281 282 282 281 281 283 283 284 284 283 283 284 283 283 283 283 284 284 284 284 284 284 284 284 283 283 281 280 280 280 280 280 280 279 279 279 279 279 279
279 280 280 281 280 280 280 280 280 280 281 281 282 282 282 283 282 282 283 283 283 283 283 283 283 282 282 281 280 280 280 281 281 281 281 281 281 281 280 280 279 279 279
279 279 279 280 280 282 281 279 279 279 279 279 279 280 280 280 281 281 281 282 282 282 281 281 281 281 281 281 281 281 282 282 281 281 281 281 281 280 280 280 279 279 279
278 278 279 279 279 280 280 280 280 279 279 279 279 279 280 280 280 280 281 281 281 282 282 282 282 282 282 282 282 282 281 281 281 281 281 280 280 280 279 279 279 278 278
277 278 278 278 278 279 279 279 279 279 279 280 280 280 280 280 280 281 281 281 281 281 281 281 282 282 282 282 281 281 281 281 280 280 280 279 279 279 278 278 278 277 277
275 276 277 277 278 278 278 279 280 280 279 279 279 279 279 280 280 280 280 280 281 281 283 282 282 283 283 282 281 280 280 280 280 279 279 278 278 277 277 277 277 277 276
275 275 275 276 276 277 277 278 278 278 279 280 280 279 279 279 279 280 280 280 280 280 281 281 281 282 282 281 280 280 280 279 279 278 278 277 277 277 276 276 275 275 275
276 274 274 274 274 274 275 276 276 277 277 278 278 279 279 279 279 279 279 280 280 281 282 282 282 281 280 280 279 279 278 278 277 277 277 276 276 276 275 274 274 275 275
276 275 275 275 275 274 273 273 274 275 276 276 276 277 277 278 278 278 278 278 278 279 279 279 279 279 278 278 277 277 276 276 276 276 275 275 275 274 273 273 273 274 274
275 275 275 275 275 275 275 275 275 275 274 273 274 274 275 276 276 276 277 277 277 277 277 277 277 277 276 276 276 275 275 275 274 274 273 273 273 273 273 272 272 272 273
Wind_Speed
27 28 28 31 34 35 37 39 42 40 41 40 37 36 38 43 48 50 47 44 42 39 38 36 34 31 29 27 26 25 24 23 24 24 23 22 22 21 20 19 19 20 20
23 28 27 26 29 31 34 36 37 40 38 38 34 32 35 40 44 48 48 46 44 42 40 37 35 32 30 28 26 24 24 23 23 23 24 24 22 22 21 22 22 24 25
16 22 29 25 26 28 30 31 35 37 38 37 35 34 37 42 45 48 48 47 45 43 40 38 35 33 30 28 26 24 23 23 22 21 22 22 22 22 22 21 21 22 24
6 12 20 25 22 24 25 27 30 34 37 38 36 35 36 38 39 47 48 48 46 43 40 37 34 32 29 27 26 24 23 22 21 21 20 21 22 21 21 21 20 19 21
5 1 7 13 16 19 21 23 25 28 31 34 35 35 36 38 40 43 48 48 46 43 40 36 33 30 27 26 25 24 22 22 21 21 21 22 21 20 20 17 17 17 14
11 7 2 4 10 14 17 19 21 24 26 29 32 34 36 38 40 41 44 48 46 43 40 37 33 30 28 27 25 24 24 22 21 22 23 22 21 17 16 16 15 15 15
12 10 6 3 3 6 10 13 18 21 23 25 28 31 33 35 37 38 40 45 45 43 39 34 32 29 27 25 22 22 22 21 22 22 22 21 18 16 15 14 14 15 17
13 12 10 8 5 2 6 10 13 17 19 22 24 26 29 30 32 34 36 40 40 37 35 33 32 31 30 26 23 24 22 21 19 20 19 17 16 14 13 11 13 15 14
12 11 10 10 9 6 3 3 7 10 13 16 19 22 25 25 28 31 30 36 37 34 32 30 28 26 25 22 25 24 23 22 21 20 18 17 16 16 16 17 16 14 17
13 11 9 6 5 5 4 2 1 3 6 9 13 15 17 21 25 25 28 32 32 30 26 24 22 22 22 23 23 22 23 21 21 19 18 19 17 17 19 19 15 18 15
12 10 8 6 4 3 2 2 2 3 5 7 9 11 13 17 19 19 22 24 25 24 24 24 24 24 23 22 21 21 21 17 15 14 15 15 15 15 15 17 17 18 18
12 11 9 7 5 4 3 3 5 5 7 9 11 12 15 17 17 17 19 20 20 22 23 23 22 21 20 18 19 19 17 14 13 12 14 14 13 11 8 9 13 15 16
12 11 10 9 7 5 4 3 4 5 8 9 11 13 14 16 19 20 19 18 18 19 20 20 19 18 18 18 18 17 16 17 15 12 12 10 10 9 9 9 9 11 12
12 11 10 9 7 6 4 3 3 4 6 7 9 11 13 15 17 20 22 21 16 15 16 16 15 15 17 18 19 19 18 17 17 16 11 9 9 10 12 13 11 11 14
12 10 9 9 7 6 5 4 3 3 4 5 6 8 9 11 13 16 20 22 21 17 15 13 15 17 18 18 18 18 18 18 17 16 17 17 17 16 15 12 11 10 12
11 11 9 8 7 6 5 4 4 4 4 5 5 6 6 6 8 11 14 20 20 20 15 14 15 15 16 17 16 16 15 14 13 12 11 11 11 10 10 10 10 10 12
12 11 10 9 8 7 5 3 4 3 2 2 4 5 6 7 10 12 14 14 16 16 17 16 16 15 15 14 13 12 10 10 9 9 8 8 7 7 8 8 9 9 9
13 11 11 10 8 7 6 6 5 4 2 2 3 3 5 8 11 13 14 14 13 14 14 15 15 15 14 13 12 11 10 9 8 7 7 8 9 10 11 12 13 13 13
16 13 12 11 11 10 8 6 6 6 6 8 8 9 10 12 13 13 13 14 16 16 16 14 14 13 13 12 11 10 9 9 9 10 11 12 13 14 15 16 17 17 18
15 16 15 13 12 13 13 12 9 8 8 8 8 10 11 12 13 15 16 16 15 15 15 14 12 10 10 10 10 10 11 12 13 14 15 16 17 18 19 19 19 20 20
15 15 16 16 15 14 13 13 13 12 12 11 11 11 11 13 13 14 15 16 16 15 13 11 10 10 10 12 13 14 15 16 17 19 20 20 21 21 20 21 21 21 21
15 13 14 16 17 17 17 17 16 16 15 14 14 14 14 16 16 17 17 18 18 17 17 16 16 16 16 17 18 19 20 21 23 23 22 22 21 20 20 19 18 18 17
14 13 12 13 14 17 19 19 19 20 20 19 19 18 18 19 19 20 20 20 20 19 20 21 21 22 22 22 22 23 25 25 24 23 22 19 18 17 16 15 14 14 14
18 17 16 16 16 15 16 18 20 20 21 21 21 22 22 21 22 22 22 23 23 25 26 26 26 25 26 26 26 26 24 22 20 19 17 16 15 15 14 14 14 13 13
20 21 21 20 19 19 18 17 17 18 20 21 23 24 24 24 25 25 25 26 26 27 27 27 27 27 26 25 23 21 20 20 18 17 16 15 15 15 15 14 13 13 12
18 18 18 17 18 19 21 21 21 21 21 20 20 20 20 21 22 24 26 28 28 28 28 26 25 23 22 21 20 19 18 17 16 16 16 16 16 15 14 14 13 11 10
Wind_Direction
224 222 225 233 234 232 229 229 229 235 239 244 242 239 240 239 237 235 233 232 232 232 232 233 234 236 239 241 243 244 245 246 247 250 257 264 269 269 267 266 267 269 269
227 222 220 224 229 231 232 229 228 232 239 244 243 240 243 242 239 236 233 231 231 231 231 231 231 234 237 239 241 244 246 246 247 250 256 263 268 270 270 270 268 268 268
241 227 221 220 224 228 231 230 227 229 236 238 239 238 237 238 237 235 233 230 230 230 230 230 232 233 235 238 241 243 244 246 249 252 255 261 269 274 276 274 272 271 271
265 234 225 221 223 227 231 232 231 232 235 238 238 240 240 238 239 236 232 228 226 227 227 229 231 233 236 237 238 241 243 247 251 255 259 265 270 273 276 280 281 279 273
25 293 228 227 229 228 226 229 232 234 236 239 241 240 239 238 234 236 230 227 224 223 223 224 226 228 230 233 235 237 240 244 248 254 261 267 269 271 276 284 285 288 286
44 41 2 257 234 232 234 233 231 232 234 236 238 238 239 239 236 233 229 227 222 222 222 220 220 221 224 228 231 233 239 246 255 261 262 266 268 269 273 275 283 290 297
44 42 39 21 275 251 239 238 237 235 235 237 239 240 240 239 238 235 230 223 221 217 217 218 218 220 224 227 237 245 248 251 252 254 257 259 263 263 261 271 283 285 286
36 36 32 33 28 305 238 239 239 239 237 237 238 238 238 239 239 234 229 218 216 215 216 215 216 220 225 228 233 237 241 245 250 255 255 255 254 253 253 257 271 289 292
34 32 26 22 21 24 9 271 247 244 240 237 236 234 234 231 229 232 225 210 209 211 213 221 223 224 223 224 232 237 237 241 241 244 246 248 246 252 257 262 269 276 289
26 22 17 14 13 10 8 4 322 247 241 236 230 225 225 219 216 217 209 207 205 208 212 217 222 228 229 231 235 236 236 237 239 237 239 238 239 241 252 261 262 269 276
18 14 9 1 346 331 307 274 231 195 200 198 201 198 198 199 200 202 204 206 209 209 214 218 222 225 227 228 230 233 239 235 232 229 231 236 243 250 254 261 266 263 262
9 6 4 2 353 331 296 258 235 216 214 206 198 193 187 190 196 202 207 210 214 219 221 221 222 219 220 220 222 231 229 231 225 230 232 240 244 247 252 248 251 260 257
4 3 1 358 351 341 313 281 245 222 219 217 216 215 212 206 205 204 205 218 215 215 220 222 218 215 214 215 218 219 218 220 226 225 235 249 259 255 247 249 251 256 262
1 358 356 352 348 343 324 293 260 235 231 225 228 223 221 217 212 212 208 204 207 210 213 214 215 210 207 208 203 205 212 214 217 226 228 230 236 252 266 272 265 258 259
345 348 352 347 342 333 324 308 284 255 234 226 226 233 229 225 218 213 208 205 202 204 194 193 188 192 194 198 203 209 213 217 222 229 234 244 250 254 258 256 249 248 258
330 328 338 337 330 326 323 327 308 279 243 227 225 224 222 212 199 196 199 201 197 196 196 195 195 200 203 206 210 214 215 215 218 220 223 228 231 241 250 247 246 254 257
317 313 313 317 317 318 305 301 324 306 274 270 225 204 191 180 165 173 168 167 191 197 198 200 201 201 203 203 204 204 199 193 194 198 202 213 224 234 248 260 265 270 274
300 298 291 292 299 306 299 287 268 260 257 231 211 207 192 170 173 180 183 182 181 187 189 193 195 196 194 191 188 186 190 195 208 218 229 241 252 259 265 267 268 272 275
282 283 282 276 272 278 275 275 268 257 234 218 211 203 195 186 180 179 177 196 191 185 182 184 186 186 187 191 197 201 214 224 235 246 254 261 266 268 270 271 274 275 275
291 272 269 270 266 262 262 260 252 246 240 235 223 212 209 201 197 192 191 191 189 191 194 196 199 201 208 217 227 236 242 250 260 265 268 271 273 274 274 274 274 273 274
304 289 269 260 259 257 254 256 259 251 243 239 230 228 222 221 215 209 206 205 207 209 212 217 223 228 240 251 257 258 260 263 265 269 272 273 273 272 270 269 269 271 274
294 287 279 270 260 256 252 251 253 253 253 251 245 235 231 228 226 225 222 219 217 215 221 229 236 247 256 259 260 262 267 270 272 273 273 272 270 267 265 264 265 266 270
285 277 276 275 269 262 259 256 253 251 250 250 251 251 245 244 238 238 237 233 231 234 237 240 245 254 260 262 264 267 269 271 272 269 268 266 263 261 259 257 259 266 273
282 276 274 274 275 270 264 259 255 253 252 251 249 248 247 244 247 246 243 242 242 245 251 255 257 260 263 266 268 269 269 267 264 260 254 251 248 247 248 254 261 266 274
281 278 275 273 270 268 267 264 262 261 258 255 253 251 249 249 248 248 249 251 252 253 254 256 258 260 262 262 261 258 255 252 248 245 242 239 239 244 251 255 258 266 277
284 281 278 273 268 265 264 264 263 260 258 259 258 255 255 254 252 250 249 250 251 252 254 254 254 252 250 247 244 240 239 239 237 237 239 240 242 244 245 247 255 265 270